Location: Newark
(46.7636°N, 1.8358°W)
Time: 17:58:29
(UTC+00:00)

Tiros 1 - Pass Details

Date: 24 October 2019
Orbit: 630 x 664 km, 48.4° (Epoch: 14 November)

Event Time Altitude Azimuth Distance (km) Brightness Sun altitude
Exits shadow 03:31:21 34° 80° (E) 1,088 8.7 -32.2°
Drops below altitude 10° 03:34:07 10° 89° (E) 2,083 10.6 -31.7°
Sets 03:36:29 0° 91° (E) 2,995 11.6 -31.3°
